QPF
0.02 0.01 0.02 0.03 0.05 0.03 0.03 0.03 0.04 0.04 0.02 0.02 0.02 0.02 0.01 0.00 0.00 0.00 0.00 0.00 0.00 0.01 0.01 0.01 0.02 0.03 0.03 0.03 0.02 0.01 0.01 0.01 0.02 0.02 0.03 0.04 0.04 0.04 0.03 0.02 0.02 0.01 0.01 0.01
0.02 0.01 0.01 0.02 0.03 0.03 0.02 0.03 0.03 0.03 0.02 0.02 0.01 0.01 0.01 0.01 0.00 0.00 0.00 0.00 0.00 0.00 0.01 0.02 0.02 0.03 0.03 0.03 0.02 0.02 0.01 0.01 0.02 0.02 0.02 0.03 0.03 0.04 0.04 0.02 0.02 0.01 0.01 0.00
0.02 0.01 0.01 0.02 0.03 0.02 0.02 0.02 0.02 0.02 0.02 0.02 0.01 0.01 0.00 0.01 0.00 0.00 0.00 0.01 0.01 0.01 0.00 0.00 0.01 0.01 0.03 0.03 0.03 0.02 0.01 0.01 0.01 0.02 0.02 0.02 0.02 0.02 0.02 0.02 0.01 0.01 0.00 0.00
0.01 0.01 0.02 0.03 0.02 0.02 0.01 0.01 0.01 0.01 0.01 0.02 0.01 0.01 0.00 0.00 0.00 0.00 0.00 0.00 0.01 0.01 0.01 0.01 0.01 0.01 0.02 0.04 0.03 0.02 0.02 0.01 0.01 0.01 0.01 0.01 0.01 0.01 0.02 0.02 0.02 0.01 0.00 0.00
0.00 0.01 0.02 0.01 0.01 0.02 0.02 0.01 0.01 0.00 0.00 0.01 0.01 0.01 0.00 0.00 0.00 0.00 0.00 0.00 0.00 0.00 0.00 0.00 0.00 0.00 0.01 0.02 0.02 0.02 0.02 0.01 0.01 0.01 0.01 0.01 0.01 0.01 0.02 0.02 0.02 0.02 0.01 0.00
0.00 0.00 0.01 0.01 0.00 0.01 0.01 0.01 0.01 0.00 0.00 0.00 0.01 0.01 0.01 0.00 0.00 0.00 0.00 0.01 0.01 0.01 0.00 0.00 0.00 0.00 0.00 0.01 0.01 0.01 0.02 0.02 0.01 0.01 0.00 0.00 0.00 0.01 0.02 0.03 0.02 0.02 0.01 0.00
0.00 0.00 0.01 0.00 0.00 0.01 0.02 0.02 0.01 0.00 0.00 0.00 0.00 0.01 0.01 0.00 0.00 0.00 0.00 0.00 0.01 0.01 0.01 0.01 0.01 0.01 0.00 0.00 0.01 0.00 0.01 0.02 0.02 0.01 0.00 0.00 0.00 0.00 0.01 0.01 0.02 0.03 0.02 0.01
0.00 0.01 0.01 0.00 0.00 0.01 0.02 0.01 0.01 0.00 0.00 0.00 0.00 0.00 0.01 0.01 0.01 0.00 0.00 0.00 0.01 0.00 0.01 0.01 0.01 0.01 0.00 0.00 0.00 0.00 0.01 0.01 0.02 0.01 0.00 0.00 0.00 0.00 0.01 0.01 0.01 0.01 0.02 0.03
0.00 0.01 0.01 0.00 0.01 0.01 0.01 0.01 0.01 0.01 0.00 0.00 0.00 0.00 0.01 0.01 0.01 0.01 0.01 0.00 0.00 0.00 0.00 0.01 0.01 0.01 0.00 0.00 0.01 0.01 0.01 0.00 0.01 0.02 0.01 0.00 0.00 0.00 0.01 0.01 0.01 0.01 0.01 0.01
0.00 0.00 0.00 0.00 0.00 0.00 0.01 0.01 0.01 0.01 0.00 0.00 0.00 0.01 0.01 0.01 0.02 0.02 0.01 0.01 0.01 0.00 0.00 0.01 0.01 0.01 0.01 0.01 0.01 0.01 0.01 0.01 0.00 0.01 0.01 0.01 0.01 0.00 0.01 0.01 0.01 0.01 0.01 0.01
0.01 0.00 0.00 0.00 0.00 0.00 0.00 0.01 0.01 0.01 0.01 0.00 0.00 0.00 0.01 0.02 0.03 0.03 0.02 0.02 0.02 0.02 0.01 0.01 0.01 0.01 0.01 0.01 0.01 0.01 0.02 0.01 0.01 0.01 0.01 0.01 0.01 0.01 0.01 0.01 0.01 0.01 0.01 0.01
0.01 0.01 0.01 0.01 0.00 0.00 0.00 0.00 0.01 0.01 0.01 0.00 0.00 0.00 0.00 0.01 0.03 0.03 0.02 0.03 0.03 0.02 0.02 0.02 0.02 0.01 0.01 0.02 0.01 0.02 0.01 0.01 0.01 0.01 0.01 0.01 0.02 0.01 0.01 0.01 0.02 0.02 0.01 0.01
0.01 0.01 0.01 0.01 0.01 0.00 0.00 0.00 0.00 0.01 0.01 0.01 0.00 0.01 0.01 0.01 0.02 0.03 0.02 0.02 0.02 0.03 0.03 0.03 0.02 0.02 0.02 0.02 0.02 0.01 0.01 0.01 0.01 0.01 0.01 0.01 0.01 0.02 0.02 0.02 0.01 0.02 0.02 0.01
0.00 0.00 0.01 0.01 0.00 0.00 0.00 0.00 0.01 0.01 0.01 0.01 0.01 0.00 0.00 0.00 0.01 0.02 0.03 0.03 0.02 0.02 0.02 0.02 0.02 0.01 0.01 0.01 0.01 0.01 0.01 0.01 0.01 0.01 0.01 0.01 0.01 0.02 0.03 0.03 0.03 0.02 0.03 0.03
0.00 0.00 0.00 0.01 0.00 0.00 0.00 0.00 0.00 0.00 0.00 0.01 0.01 0.00 0.00 0.00 0.00 0.00 0.01 0.02 0.02 0.01 0.01 0.01 0.01 0.01 0.01 0.01 0.01 0.01 0.01 0.01 0.01 0.01 0.00 0.01 0.01 0.01 0.02 0.03 0.03 0.03 0.02 0.02
0.00 0.00 0.00 0.00 0.00 0.00 0.00 0.00 0.00 0.00 0.00 0.00 0.00 0.00 0.00 0.00 0.00 0.00 0.00 0.00 0.00 0.00 0.00 0.00 0.01 0.01 0.01 0.01 0.01 0.01 0.01 0.01 0.01 0.01 0.00 0.00 0.01 0.01 0.01 0.02 0.02 0.03 0.03 0.02
0.00 0.00 0.00 0.00 0.00 0.00 0.00 0.00 0.00 0.00 0.00 0.00 0.00 0.00 0.00 0.00 0.00 0.00 0.00 0.00 0.00 0.00 0.00 0.00 0.00 0.00 0.01 0.01 0.01 0.01 0.01 0.01 0.01 0.00 0.00 0.00 0.00 0.01 0.01 0.01 0.02 0.03 0.03 0.03
0.00 0.00 0.00 0.00 0.00 0.00 0.00 0.00 0.00 0.00 0.00 0.00 0.00 0.00 0.00 0.00 0.00 0.00 0.00 0.00 0.00 0.00 0.00 0.00 0.00 0.00 0.00 0.00 0.01 0.01 0.01 0.01 0.01 0.01 0.00 0.01 0.01 0.01 0.01 0.01 0.02 0.03 0.03 0.03
0.00 0.00 0.00 0.00 0.00 0.00 0.00 0.00 0.00 0.00 0.00 0.00 0.00 0.00 0.00 0.00 0.00 0.00 0.00 0.00 0.00 0.00 0.00 0.00 0.00 0.00 0.00 0.00 0.00 0.01 0.01 0.01 0.01 0.01 0.01 0.01 0.01 0.01 0.02 0.02 0.02 0.02 0.02 0.03
0.00 0.00 0.00 0.00 0.00 0.00 0.00 0.00 0.00 0.00 0.00 0.00 0.00 0.00 0.00 0.00 0.00 0.00 0.00 0.00 0.00 0.00 0.00 0.00 0.00 0.00 0.00 0.00 0.00 0.00 0.01 0.01 0.01 0.01 0.01 0.01 0.01 0.01 0.02 0.03 0.03 0.02 0.02 0.02
0.00 0.00 0.00 0.00 0.00 0.00 0.00 0.00 0.00 0.00 0.00 0.00 0.00 0.00 0.00 0.00 0.00 0.00 0.00 0.00 0.00 0.00 0.00 0.00 0.00 0.00 0.00 0.00 0.00 0.00 0.00 0.00 0.00 0.00 0.01 0.01 0.01 0.01 0.01 0.01 0.02 0.03 0.02 0.02
0.00 0.00 0.00 0.00 0.00 0.00 0.00 0.00 0.00 0.00 0.00 0.00 0.00 0.00 0.00 0.00 0.00 0.00 0.00 0.00 0.00 0.00 0.00 0.00 0.00 0.00 0.00 0.00 0.00 0.00 0.00 0.00 0.00 0.00 0.00 0.00 0.00 0.00 0.00 0.01 0.01 0.01 0.02 0.02
0.01 0.00 0.00 0.00 0.00 0.00 0.00 0.00 0.00 0.00 0.00 0.00 0.00 0.00 0.00 0.00 0.00 0.00 0.00 0.00 0.00 0.00 0.00 0.00 0.00 0.00 0.00 0.00 0.00 0.00 0.00 0.00 0.00 0.00 0.00 0.00 0.00 0.00 0.00 0.00 0.00 0.01 0.01 0.01
0.01 0.01 0.01 0.00 0.00 0.00 0.00 0.00 0.00 0.00 0.00 0.00 0.00 0.00 0.00 0.00 0.00 0.00 0.00 0.00 0.00 0.00 0.00 0.00 0.00 0.00 0.00 0.00 0.00 0.00 0.00 0.00 0.00 0.00 0.00 0.00 0.01 0.01 0.00 0.00 0.01 0.01 0.01 0.01
0.02 0.02 0.01 0.01 0.01 0.00 0.00 0.00 0.00 0.00 0.00 0.00 0.00 0.00 0.00 0.00 0.00 0.00 0.00 0.00 0.00 0.00 0.00 0.00 0.00 0.00 0.00 0.00 0.00 0.00 0.00 0.00 0.00 0.00 0.00 0.01 0.01 0.01 0.01 0.01 0.01 0.01 0.01 0.00
0.01 0.01 0.01 0.01 0.00 0.00 0.00 0.00 0.00 0.00 0.00 0.00 0.00 0.00 0.00 0.00 0.00 0.00 0.00 0.00 0.00 0.00 0.00 0.00 0.00 0.00 0.01 0.01 0.01 0.01 0.01 0.01 0.01 0.00 0.00 0.01 0.01 0.01 0.01 0.01 0.01 0.01 0.01 0.01
0.00 0.00 0.00 0.00 0.00 0.00 0.01 0.01 0.01 0.01 0.01 0.01 0.00 0.00 0.00 0.00 0.00 0.00 0.00 0.00 0.00 0.00 0.00 0.00 0.00 0.01 0.01 0.01 0.01 0.01 0.01 0.01 0.00 0.00 0.00 0.00 0.01 0.01 0.01 0.01 0.01 0.01 0.01 0.01
MSLP
1020.54 1020.76 1020.95 1021.13 1021.27 1021.38 1021.46 1021.51 1021.53 1021.54 1021.56 1021.62 1021.75 1021.95 1022.24 1022.61 1023.05 1023.54 1024.04 1024.53 1024.99 1025.41 1025.79 1026.14 1026.47 1026.79 1027.11 1027.43 1027.75 1028.04 1028.31 1028.52 1028.68 1028.78 1028.83 1028.84 1028.82 1028.80 1028.78 1028.76 1028.73 1028.70 1028.63 1028.53
1020.42 1020.56 1020.66 1020.73 1020.77 1020.78 1020.78 1020.77 1020.77 1020.79 1020.85 1020.96 1021.15 1021.43 1021.78 1022.20 1022.68 1023.18 1023.69 1024.19 1024.67 1025.11 1025.53 1025.93 1026.33 1026.73 1027.12 1027.52 1027.91 1028.26 1028.57 1028.82 1029.00 1029.12 1029.18 1029.20 1029.19 1029.18 1029.17 1029.15 1029.14 1029.11 1029.06 1028.97
1020.40 1020.45 1020.43 1020.38 1020.30 1020.21 1020.13 1020.07 1020.04 1020.08 1020.18 1020.35 1020.62 1020.96 1021.37 1021.83 1022.33 1022.84 1023.35 1023.85 1024.32 1024.78 1025.22 1025.67 1026.12 1026.58 1027.05 1027.51 1027.96 1028.36 1028.71 1028.99 1029.20 1029.34 1029.41 1029.45 1029.45 1029.45 1029.44 1029.44 1029.43 1029.41 1029.37 1029.30
1020.41 1020.35 1020.22 1020.04 1019.85 1019.66 1019.50 1019.40 1019.36 1019.42 1019.56 1019.80 1020.14 1020.54 1021.01 1021.51 1022.03 1022.54 1023.05 1023.53 1024.00 1024.46 1024.92 1025.39 1025.89 1026.40 1026.92 1027.44 1027.93 1028.38 1028.76 1029.06 1029.29 1029.44 1029.53 1029.57 1029.59 1029.60 1029.60 1029.60 1029.60 1029.59 1029.56 1029.50
1020.34 1020.18 1019.95 1019.67 1019.39 1019.12 1018.91 1018.77 1018.74 1018.82 1019.02 1019.32 1019.72 1020.18 1020.70 1021.23 1021.77 1022.29 1022.79 1023.27 1023.73 1024.19 1024.66 1025.16 1025.68 1026.23 1026.79 1027.34 1027.86 1028.33 1028.73 1029.05 1029.28 1029.44 1029.54 1029.59 1029.61 1029.63 1029.64 1029.65 1029.66 1029.66 1029.63 1029.58
1020.10 1019.88 1019.58 1019.23 1018.88 1018.57 1018.34 1018.20 1018.18 1018.30 1018.54 1018.90 1019.36 1019.88 1020.44 1021.00 1021.56 1022.09 1022.59 1023.06 1023.53 1024.00 1024.48 1025.00 1025.54 1026.11 1026.69 1027.26 1027.79 1028.27 1028.66 1028.98 1029.21 1029.36 1029.46 1029.51 1029.54 1029.56 1029.58 1029.60 1029.62 1029.63 1029.62 1029.58
1019.64 1019.38 1019.05 1018.69 1018.33 1018.02 1017.79 1017.68 1017.70 1017.86 1018.16 1018.57 1019.07 1019.63 1020.22 1020.81 1021.38 1021.92 1022.43 1022.92 1023.39 1023.88 1024.38 1024.91 1025.47 1026.05 1026.64 1027.21 1027.73 1028.19 1028.57 1028.87 1029.08 1029.22 1029.31 1029.36 1029.40 1029.43 1029.46 1029.49 1029.53 1029.55 1029.56 1029.54
1018.95 1018.70 1018.39 1018.05 1017.72 1017.45 1017.28 1017.22 1017.30 1017.51 1017.85 1018.31 1018.84 1019.43 1020.04 1020.65 1021.23 1021.79 1022.31 1022.81 1023.30 1023.81 1024.33 1024.88 1025.45 1026.03 1026.61 1027.16 1027.66 1028.10 1028.45 1028.72 1028.91 1029.04 1029.11 1029.16 1029.20 1029.24 1029.29 1029.34 1029.40 1029.45 1029.49 1029.49
1018.09 1017.87 1017.61 1017.33 1017.09 1016.91 1016.81 1016.83 1016.98 1017.25 1017.64 1018.12 1018.68 1019.28 1019.90 1020.51 1021.09 1021.65 1022.18 1022.70 1023.21 1023.73 1024.27 1024.83 1025.41 1025.99 1026.55 1027.08 1027.56 1027.96 1028.28 1028.52 1028.69 1028.80 1028.87 1028.92 1028.97 1029.03 1029.10 1029.19 1029.27 1029.36 1029.43 1029.47
1017.12 1016.96 1016.78 1016.60 1016.47 1016.39 1016.41 1016.52 1016.74 1017.07 1017.50 1018.00 1018.56 1019.16 1019.76 1020.36 1020.93 1021.49 1022.02 1022.55 1023.07 1023.60 1024.15 1024.72 1025.29 1025.86 1026.41 1026.91 1027.35 1027.73 1028.02 1028.24 1028.39 1028.50 1028.57 1028.64 1028.71 1028.79 1028.90 1029.02 1029.15 1029.27 1029.38 1029.46
1016.15 1016.06 1015.97 1015.91 1015.89 1015.94 1016.07 1016.28 1016.58 1016.96 1017.41 1017.92 1018.48 1019.05 1019.62 1020.18 1020.73 1021.27 1021.79 1022.31 1022.83 1023.36 1023.91 1024.47 1025.03 1025.58 1026.11 1026.59 1027.01 1027.35 1027.63 1027.84 1027.99 1028.11 1028.20 1028.30 1028.40 1028.53 1028.67 1028.84 1029.01 1029.18 1029.33 1029.45
1015.28 1015.25 1015.25 1015.29 1015.39 1015.56 1015.79 1016.10 1016.46 1016.89 1017.36 1017.86 1018.39 1018.92 1019.45 1019.97 1020.47 1020.97 1021.46 1021.95 1022.46 1022.97 1023.50 1024.04 1024.58 1025.11 1025.61 1026.07 1026.47 1026.81 1027.08 1027.30 1027.48 1027.62 1027.75 1027.88 1028.03 1028.20 1028.40 1028.61 1028.82 1029.03 1029.23 1029.39
1014.56 1014.58 1014.65 1014.79 1014.99 1015.26 1015.58 1015.95 1016.37 1016.82 1017.30 1017.78 1018.27 1018.76 1019.23 1019.70 1020.15 1020.59 1021.04 1021.49 1021.95 1022.43 1022.93 1023.43 1023.94 1024.44 1024.92 1025.36 1025.75 1026.09 1026.38 1026.62 1026.83 1027.02 1027.19 1027.38 1027.58 1027.80 1028.04 1028.29 1028.55 1028.80 1029.03 1029.23
1014.00 1014.05 1014.19 1014.40 1014.68 1015.02 1015.41 1015.83 1016.28 1016.75 1017.21 1017.67 1018.12 1018.56 1018.97 1019.37 1019.76 1020.15 1020.53 1020.92 1021.34 1021.76 1022.21 1022.67 1023.14 1023.60 1024.05 1024.47 1024.87 1025.22 1025.53 1025.81 1026.06 1026.30 1026.54 1026.78 1027.03 1027.30 1027.58 1027.87 1028.16 1028.44 1028.70 1028.93
1013.59 1013.66 1013.84 1014.10 1014.44 1014.83 1015.26 1015.72 1016.18 1016.64 1017.09 1017.52 1017.93 1018.31 1018.67 1019.01 1019.33 1019.65 1019.97 1020.30 1020.65 1021.02 1021.40 1021.81 1022.22 1022.65 1023.07 1023.48 1023.87 1024.24 1024.58 1024.90 1025.21 1025.50 1025.79 1026.08 1026.38 1026.68 1027.00 1027.32 1027.64 1027.94 1028.23 1028.48
1013.27 1013.38 1013.59 1013.88 1014.25 1014.68 1015.13 1015.60 1016.06 1016.51 1016.93 1017.33 1017.69 1018.03 1018.33 1018.62 1018.89 1019.15 1019.40 1019.67 1019.95 1020.25 1020.57 1020.92 1021.28 1021.66 1022.05 1022.44 1022.83 1023.21 1023.58 1023.94 1024.29 1024.63 1024.96 1025.30 1025.63 1025.97 1026.32 1026.66 1026.99 1027.31 1027.62 1027.89
1013.02 1013.16 1013.40 1013.73 1014.12 1014.56 1015.01 1015.47 1015.92 1016.35 1016.74 1017.10 1017.43 1017.72 1017.98 1018.22 1018.44 1018.65 1018.86 1019.06 1019.28 1019.52 1019.78 1020.06 1020.37 1020.71 1021.06 1021.43 1021.82 1022.20 1022.59 1022.98 1023.36 1023.74 1024.11 1024.47 1024.83 1025.19 1025.55 1025.90 1026.25 1026.58 1026.91 1027.21
1012.82 1012.99 1013.27 1013.62 1014.03 1014.47 1014.92 1015.36 1015.78 1016.18 1016.54 1016.86 1017.15 1017.41 1017.63 1017.84 1018.02 1018.19 1018.35 1018.52 1018.68 1018.87 1019.07 1019.30 1019.56 1019.84 1020.16 1020.51 1020.88 1021.26 1021.66 1022.06 1022.46 1022.85 1023.24 1023.63 1024.00 1024.37 1024.74 1025.10 1025.45 1025.80 1026.15 1026.48
1012.65 1012.88 1013.20 1013.58 1013.99 1014.42 1014.85 1015.27 1015.65 1016.00 1016.32 1016.61 1016.86 1017.09 1017.29 1017.47 1017.63 1017.78 1017.91 1018.04 1018.17 1018.31 1018.47 1018.65 1018.86 1019.11 1019.39 1019.70 1020.05 1020.42 1020.81 1021.20 1021.61 1022.01 1022.40 1022.79 1023.17 1023.55 1023.92 1024.28 1024.65 1025.01 1025.38 1025.74
1012.56 1012.84 1013.20 1013.60 1014.01 1014.43 1014.83 1015.20 1015.53 1015.84 1016.11 1016.36 1016.58 1016.78 1016.96 1017.12 1017.27 1017.40 1017.52 1017.62 1017.73 1017.84 1017.96 1018.11 1018.28 1018.48 1018.73 1019.01 1019.33 1019.67 1020.04 1020.42 1020.82 1021.21 1021.60 1021.98 1022.36 1022.74 1023.11 1023.48 1023.86 1024.24 1024.63 1025.02
1012.56 1012.90 1013.28 1013.69 1014.09 1014.48 1014.83 1015.15 1015.43 1015.68 1015.91 1016.11 1016.29 1016.47 1016.63 1016.78 1016.92 1017.04 1017.15 1017.25 1017.34 1017.43 1017.53 1017.65 1017.78 1017.95 1018.16 1018.40 1018.68 1019.00 1019.34 1019.70 1020.07 1020.45 1020.82 1021.20 1021.57 1021.95 1022.32 1022.70 1023.09 1023.50 1023.91 1024.33
1012.67 1013.04 1013.44 1013.85 1014.23 1014.57 1014.87 1015.12 1015.34 1015.53 1015.70 1015.86 1016.01 1016.16 1016.30 1016.44 1016.58 1016.70 1016.81 1016.90 1016.98 1017.06 1017.14 1017.22 1017.33 1017.47 1017.64 1017.84 1018.08 1018.36 1018.66 1018.99 1019.34 1019.69 1020.06 1020.42 1020.79 1021.16 1021.54 1021.93 1022.33 1022.75 1023.18 1023.63
1012.88 1013.27 1013.67 1014.05 1014.39 1014.67 1014.91 1015.10 1015.25 1015.38 1015.49 1015.61 1015.72 1015.85 1015.98 1016.11 1016.24 1016.36 1016.46 1016.55 1016.62 1016.69 1016.74 1016.81 1016.88 1016.98 1017.11 1017.28 1017.48 1017.72 1017.99 1018.28 1018.60 1018.93 1019.27 1019.62 1019.98 1020.36 1020.74 1021.14 1021.55 1021.98 1022.43 1022.89
1013.17 1013.56 1013.93 1014.27 1014.55 1014.77 1014.94 1015.06 1015.15 1015.23 1015.30 1015.37 1015.46 1015.56 1015.67 1015.80 1015.92 1016.03 1016.12 1016.20 1016.26 1016.30 1016.33 1016.37 1016.41 1016.47 1016.56 1016.69 1016.85 1017.05 1017.28 1017.54 1017.82 1018.13 1018.45 1018.79 1019.14 1019.51 1019.89 1020.29 1020.71 1021.14 1021.60 1022.07
1013.50 1013.86 1014.19 1014.47 1014.69 1014.85 1014.95 1015.02 1015.06 1015.08 1015.12 1015.16 1015.23 1015.31 1015.41 1015.52 1015.62 1015.72 1015.80 1015.85 1015.88 1015.90 1015.90 1015.89 1015.90 1015.92 1015.97 1016.06 1016.18 1016.33 1016.53 1016.76 1017.01 1017.29 1017.60 1017.92 1018.26 1018.61 1018.98 1019.38 1019.79 1020.22 1020.66 1021.13
1013.84 1014.16 1014.43 1014.65 1014.80 1014.90 1014.95 1014.97 1014.97 1014.97 1014.98 1015.01 1015.06 1015.13 1015.22 1015.31 1015.39 1015.46 1015.51 1015.53 1015.52 1015.49 1015.45 1015.41 1015.37 1015.35 1015.36 1015.40 1015.48 1015.60 1015.76 1015.96 1016.18 1016.44 1016.71 1017.01 1017.33 1017.66 1018.02 1018.39 1018.78 1019.19 1019.62 1020.07
1014.16 1014.42 1014.64 1014.79 1014.89 1014.94 1014.95 1014.94 1014.93 1014.91 1014.92 1014.94 1014.98 1015.05 1015.11 1015.18 1015.24 1015.27 1015.27 1015.25 1015.20 1015.12 1015.03 1014.94 1014.86 1014.79 1014.76 1014.76 1014.81 1014.89 1015.02 1015.18 1015.37 1015.59 1015.83 1016.10 1016.38 1016.68 1017.00 1017.34 1017.70 1018.07 1018.47 1018.89
Thickness
5675 5680 5679 5674 5672 5672 5669 5668 5663 5667 5669 5672 5674 5675 5675 5675 5673 5670 5668 5667 5667 5664 5663 5661 5661 5660 5658 5656 5654 5651 5648 5645 5643 5641 5639 5638 5636 5633 5631 5629 5627 5625 5623 5621
5669 5678 5677 5670 5670 5669 5668 5668 5666 5666 5664 5675 5677 5675 5671 5668 5666 5663 5661 5660 5660 5658 5656 5655 5654 5652 5651 5649 5647 5645 5641 5638 5636 5634 5632 5630 5629 5627 5624 5622 5621 5619 5616 5613
5657 5671 5668 5658 5667 5667 5666 5667 5665 5658 5662 5671 5669 5667 5664 5662 5660 5657 5656 5654 5653 5651 5650 5648 5647 5646 5644 5642 5640 5637 5634 5631 5629 5627 5625 5623 5621 5619 5617 5615 5613 5611 5609 5606
5653 5656 5641 5659 5676 5674 5666 5665 5666 5663 5665 5664 5664 5663 5662 5659 5654 5652 5651 5649 5647 5646 5644 5642 5642 5640 5639 5636 5633 5630 5627 5624 5622 5620 5617 5615 5614 5611 5609 5608 5605 5603 5601 5599
5645 5641 5647 5659 5667 5666 5660 5656 5663 5659 5658 5658 5659 5656 5652 5653 5651 5647 5645 5644 5642 5641 5639 5637 5635 5633 5631 5629 5626 5623 5620 5618 5615 5613 5610 5608 5606 5603 5602 5600 5597 5595 5594 5591
5642 5635 5634 5648 5662 5668 5659 5644 5657 5656 5651 5649 5646 5637 5637 5645 5644 5641 5640 5638 5636 5634 5632 5629 5627 5626 5623 5620 5618 5615 5614 5611 5609 5606 5604 5601 5599 5597 5594 5592 5590 5588 5587 5584
5634 5632 5639 5652 5657 5657 5637 5636 5650 5650 5646 5641 5636 5635 5636 5638 5635 5633 5632 5631 5629 5626 5624 5622 5620 5618 5616 5613 5610 5609 5607 5604 5602 5599 5597 5595 5592 5590 5587 5585 5583 5581 5579 5577
5633 5626 5629 5648 5649 5641 5639 5646 5644 5642 5640 5635 5631 5630 5630 5628 5626 5624 5623 5622 5620 5618 5615 5614 5613 5610 5608 5605 5604 5602 5599 5597 5594 5592 5590 5588 5584 5582 5580 5577 5575 5572 5570 5567
5635 5632 5643 5646 5644 5643 5644 5639 5637 5634 5632 5629 5624 5621 5620 5618 5616 5615 5613 5612 5611 5609 5607 5605 5604 5603 5599 5598 5597 5595 5592 5589 5587 5585 5582 5580 5577 5574 5571 5569 5565 5563 5561 5558
5634 5637 5639 5640 5640 5638 5636 5632 5630 5628 5625 5622 5617 5614 5612 5609 5607 5606 5605 5603 5602 5601 5598 5596 5596 5595 5593 5591 5590 5587 5584 5581 5579 5576 5574 5571 5568 5566 5562 5559 5556 5554 5552 5550
5626 5631 5632 5632 5632 5631 5628 5626 5623 5620 5618 5614 5610 5607 5604 5602 5600 5598 5596 5594 5593 5591 5589 5588 5587 5586 5585 5584 5582 5579 5577 5574 5571 5569 5565 5562 5559 5556 5554 5551 5549 5546 5544 5542
5619 5627 5624 5623 5626 5626 5621 5617 5615 5612 5609 5606 5603 5599 5597 5594 5592 5589 5587 5586 5584 5582 5580 5579 5579 5578 5577 5576 5574 5571 5568 5566 5563 5560 5557 5554 5550 5547 5546 5544 5542 5540 5538 5536
5624 5625 5622 5621 5619 5619 5615 5612 5609 5605 5601 5597 5595 5592 5589 5586 5583 5581 5579 5577 5575 5573 5572 5571 5569 5569 5568 5568 5565 5563 5560 5558 5556 5553 5549 5546 5543 5540 5537 5534 5533 5532 5530 5529
5622 5618 5613 5612 5611 5611 5608 5605 5602 5599 5595 5591 5588 5584 5581 5578 5575 5573 5571 5569 5567 5566 5564 5563 5561 5560 5560 5559 5558 5556 5553 5551 5548 5545 5542 5539 5537 5534 5531 5528 5525 5523 5521 5520
5614 5612 5609 5607 5605 5603 5600 5597 5593 5590 5587 5583 5580 5576 5573 5570 5568 5566 5564 5562 5560 5558 5556 5555 5553 5552 5552 5551 5549 5548 5546 5543 5540 5538 5535 5532 5529 5526 5523 5520 5518 5515 5513 5511
5607 5605 5602 5598 5595 5593 5591 5588 5584 5582 5579 5576 5572 5569 5566 5564 5561 5559 5557 5554 5551 5549 5548 5547 5545 5545 5544 5542 5541 5539 5538 5536 5534 5530 5528 5524 5521 5518 5514 5512 5509 5507 5505 5503
5598 5594 5592 5590 5588 5586 5584 5581 5579 5576 5573 5569 5565 5562 5559 5556 5553 5551 5549 5546 5544 5542 5540 5538 5537 5536 5536 5534 5532 5531 5529 5527 5526 5523 5520 5517 5513 5510 5507 5504 5502 5499 5497 5496
5597 5594 5591 5587 5584 5581 5579 5576 5573 5570 5566 5562 5559 5555 5551 5548 5545 5543 5541 5538 5536 5534 5532 5530 5528 5527 5527 5526 5524 5522 5520 5518 5516 5514 5512 5508 5505 5502 5500 5497 5494 5492 5490 5488
5591 5588 5586 5583 5580 5576 5573 5570 5566 5563 5559 5556 5551 5547 5544 5542 5539 5536 5533 5530 5527 5524 5523 5521 5520 5518 5517 5516 5514 5512 5511 5510 5508 5505 5503 5500 5497 5495 5492 5490 5487 5485 5482 5480
5584 5581 5579 5576 5573 5569 5566 5563 5559 5555 5552 5548 5544 5540 5536 5533 5531 5527 5524 5522 5519 5517 5515 5513 5511 5509 5508 5507 5505 5504 5502 5501 5499 5497 5494 5492 5490 5487 5485 5483 5481 5478 5475 5473
5576 5573 5570 5568 5565 5562 5558 5555 5552 5547 5544 5540 5536 5532 5529 5526 5523 5519 5516 5513 5512 5509 5507 5506 5503 5501 5499 5498 5497 5495 5493 5492 5490 5488 5486 5484 5481 5480 5477 5475 5473 5470 5468 5465
5568 5565 5562 5559 5556 5553 5550 5547 5544 5540 5536 5532 5529 5526 5522 5518 5515 5512 5509 5506 5504 5501 5499 5497 5495 5493 5492 5490 5488 5486 5484 5482 5480 5478 5476 5475 5472 5471 5469 5467 5464 5462 5460 5457
5559 5557 5554 5551 5548 5545 5542 5539 5535 5532 5528 5525 5521 5518 5514 5511 5508 5504 5501 5499 5497 5494 5491 5489 5487 5486 5484 5481 5480 5478 5476 5474 5471 5469 5467 5465 5464 5462 5460 5458 5456 5454 5451 5449
5551 5548 5546 5543 5540 5536 5532 5530 5527 5524 5521 5517 5514 5511 5507 5504 5501 5498 5496 5493 5490 5486 5484 5481 5480 5478 5475 5473 5471 5469 5467 5465 5463 5461 5459 5457 5455 5453 5452 5450 5448 5445 5443 5442
5542 5540 5537 5534 5531 5528 5525 5522 5519 5515 5512 5509 5506 5503 5500 5497 5494 5491 5488 5485 5482 5479 5476 5474 5472 5470 5467 5465 5463 5461 5459 5457 5455 5453 5450 5448 5446 5445 5443 5441 5439 5437 5436 5434
5532 5530 5528 5526 5524 5521 5518 5514 5511 5507 5504 5500 5498 5495 5492 5489 5486 5483 5480 5477 5474 5471 5468 5466 5463 5461 5459 5457 5455 5453 5451 5449 5447 5444 5442 5440 5438 5437 5435 5433 5432 5430 5428 5427
5523 5522 5519 5517 5515 5513 5510 5507 5503 5500 5497 5493 5490 5487 5484 5481 5477 5474 5471 5468 5465 5463 5460 5458 5456 5453 5451 5449 5447 5445 5443 5441 5439 5436 5434 5432 5431 5429 5427 5426 5424 5422 5421 5420